Simultaneous Nadir Overpasses (SNOs) Predictions

Prediction of SNOs between METOP-B and NOAA-19 Satellite Orbit:

Table of predicted SNOs for the next 14.0 days since TLE Epoch: 11/2/2018
Index Date (METOP-B) Time (METOP-B) Lat,Lon (METOP-B) SZA (METOP-B ) Date (NOAA-19) Time (NOAA-19) Lat,Lon (NOAA-19) SZA (NOAA-19 ) Distance(km) Time Diff (sec)
1 11/06/2018 03:09:43 78.89, 145.64 95.24 11/06/2018 03:08:33 78.92, 143.67 95.15 42.13 70
2 11/06/2018 04:00:28 -78.75, -47.95 84.94 11/06/2018 03:59:31 -78.77, -47.98 84.93 2.27 57
3 11/06/2018 04:51:08 78.77, 119.49 95.10 11/06/2018 04:50:29 78.75, 119.43 95.07 2.39 39
4 11/06/2018 05:41:50 -78.74, -73.37 84.93 11/06/2018 05:41:31 -78.74, -73.23 84.93 3.18 19
5 11/06/2018 06:32:30 78.76, 94.07 95.11 11/06/2018 06:32:30 78.75, 93.94 95.10 2.98 0
6 11/06/2018 07:23:12 -78.73, -98.79 84.93 11/06/2018 07:23:32 -78.74, -98.72 84.91 1.79 20
7 11/06/2018 08:13:52 78.75, 68.65 95.11 11/06/2018 08:14:30 78.72, 68.69 95.10 3.42 38
8 11/06/2018 09:04:34 -78.72,-124.21 84.92 11/06/2018 09:05:33 -78.74,-124.22 84.89 2.42 59




NCC Satellite Simultaneous Nadir Overpasses (SNOs) Prediction Service
